Tucumcari, NM

7:43 AM MST on December 08, 2016 (GMT -0700)
Tucumcari Municipal

Weather History for KTCC - October, 2012

Change the Weather History Date:

Saturday, October 27, 2012

  Actual Average Record
Temperature  
Mean Temperature 46 °F -  
Max Temperature 64 °F 71 °F 89 °F (1979)
Min Temperature 30 °F 41 °F 27 °F (1913)
Degree Days  
Heating Degree Days 19    
Moisture  
Dew Point 19 °F    
Average Humidity 37    
Maximum Humidity 61    
Minimum Humidity 21    
Precipitation  
Precipitation 0.00 in - - ()
Sea Level Pressure  
Sea Level Pressure 30.14 in    
Wind  
Wind Speed 8 mph (SSW)    
Max Wind Speed 25 mph    
Max Gust Speed 34 mph    
Visibility 10 miles    
Events      
Averages and records for this station are not official NWS values.
T = Trace of Precipitation, MM = Missing Value Source: NWS Daily Summary

Daily Weather History Graph

Daily Weather History Graph

Search for Another Location

Airport or City:

Trip Planner

Search our weather history database for the weather conditions in past years. The results will help you decide how hot, cold, wet, or windy it might be!

Date:

Astronomy

Oct. 27, 2012 Rise Set
Actual Time 7:11 AM MDT 6:04 PM MDT
Civil Twilight 6:45 AM MDT 6:30 PM MDT
Nautical Twilight 6:15 AM MDT 7:00 PM MDT
Astronomical Twilight 5:46 AM MDT 7:29 PM MDT
Moon 4:49 PM MDT (10/27) 5:11 AM MDT (10/27)
Length of Visible Light 11h 44m
Length of Day
10h 52m
Waxing Gibbous, 96% of the Moon is Illuminated
Oct 27
Waxing Gibbous
Oct 29
Full
Nov 6
Last Quarter
Nov 13
New
Nov 20
First Quarter

Hourly Weather History & Observations

Time (MDT) Temp. Windchill Dew Point Humidity Pressure Visibility Wind Dir Wind Speed Gust Speed Precip Events Conditions
1:53 AM 34.0 °F - 19.9 °F 56% 30.29 in 10.0 mi Calm Calm - N/A   Clear
2:53 AM 32.0 °F 26.4 °F 19.9 °F 61% 30.27 in 10.0 mi SW 5.8 mph - N/A   Clear
3:53 AM 33.1 °F 30.0 °F 19.9 °F 59% 30.25 in 10.0 mi WSW 3.5 mph - N/A   Clear
4:53 AM 32.0 °F 28.7 °F 19.0 °F 59% 30.25 in 10.0 mi Variable 3.5 mph - N/A   Clear
5:53 AM 32.0 °F 23.6 °F 17.1 °F 54% 30.24 in 10.0 mi SW 10.4 mph - N/A   Clear
6:53 AM 30.9 °F 24.3 °F 16.0 °F 54% 30.25 in 10.0 mi SW 6.9 mph - N/A   Clear
7:53 AM 35.1 °F 28.6 °F 16.0 °F 46% 30.25 in 10.0 mi SW 8.1 mph - N/A   Clear
8:53 AM 39.9 °F 31.4 °F 16.0 °F 38% 30.24 in 10.0 mi SW 16.1 mph - N/A   Clear
9:53 AM 46.0 °F 37.4 °F 15.1 °F 29% 30.19 in 10.0 mi SSW 25.3 mph 34.5 mph N/A   Clear
10:53 AM 50.0 °F - 16.0 °F 26% 30.15 in 10.0 mi SSW 23.0 mph 31.1 mph N/A   Clear
11:53 AM 54.0 °F - 19.0 °F 25% 30.11 in 10.0 mi SW 19.6 mph 27.6 mph N/A   Clear
12:53 PM 57.9 °F - 19.9 °F 23% 30.07 in 10.0 mi WSW 17.3 mph 23.0 mph N/A   Clear
1:53 PM 60.1 °F - 19.9 °F 21% 30.03 in 10.0 mi West 13.8 mph 19.6 mph N/A   Clear
2:53 PM 62.1 °F - 21.0 °F 21% 29.99 in 10.0 mi SSW 11.5 mph 21.9 mph N/A   Clear
3:53 PM 62.1 °F - 21.0 °F 21% 29.99 in 10.0 mi SSW 13.8 mph - N/A   Clear
4:53 PM 62.1 °F - 21.0 °F 21% 29.99 in 10.0 mi South 11.5 mph - N/A   Clear
5:53 PM 57.9 °F - 21.0 °F 24% 30.01 in 10.0 mi South 9.2 mph - N/A   Clear
6:53 PM 53.1 °F - 19.9 °F 27% 30.06 in 10.0 mi SE 5.8 mph - N/A   Clear
7:53 PM 50.0 °F - 19.9 °F 31% 30.07 in 10.0 mi SE 4.6 mph - N/A   Clear
8:53 PM 46.9 °F - 19.9 °F 34% 30.09 in 10.0 mi SE 3.5 mph - N/A   Clear
10:53 PM 41.0 °F - 19.0 °F 41% 30.11 in 10.0 mi Calm Calm - N/A   Clear
11:53 PM 39.0 °F - 19.9 °F 46% 30.12 in 10.0 mi Calm Calm - N/A   Clear